www.pogodaiklimat.ru

Погода и климат >> Архив погоды >> Россия >> Якутия >> Учур


АРХИВ ПОГОДЫ в Учуре

Время (UTC), дата Ветер
(напр.,м/с)
 
Видим.   Явления Облачность Т
(С)
Тd
(С)
f
(%)
Тe
(С)
Тes
(С)
Комфортность P
(гПа)
Po
(гПа)
Тmin
(С)
Tmax
(С)
R
(мм)
R24
(мм)
S
(см)
00 16.07 З 2 50 км в посл. час ливневой дождь {гроза} 9/5 1000 м
[Sc Ac As]
+22.4 +16.3 68 +27 +29 душно 1009.4 986.9 +15.7
03 16.07 СВ 1 50 км {гроза} 6/0
[Ci sp]
+26.6 +15.5 51 +30 +44 душно 1007.9 985.7
06 16.07 С 2 50 км {гроза} 9/4 1000 м
[Cu med, cong Ci sp]
+29.4 +13.8 38 +31 +36 жарко 1006.3 984.2
09 16.07 С 2 50 км в посл. час гроза 10/6 1000 м
[Cb cap Ci sp]
+27.8 +13.1 40 +29 +30 жарко 1005.7 983.6
12 16.07 ЮЗ 1 20 км {гроза} 10/4 1000 м
[Cb cap Ac As Ci sp]
+23.8 +15.1 58 +27 +27 жарко 1007.1 984.7 +30.1
15 16.07 ЮЗ 1 20 км 10/3 1000 м
[Sc Ac As Ci sp]
+19.1 +16.3 84 +22 +22 комфорт 1008.0 985.2
18 16.07 Ю 1 20 км 10/0
[Ac As Ci sp]
+14.3 +10.5 78 +15 +15 1009.0 985.8
21 16.07 ЮЗ 2 10 км дым 10/0
[Ac As Cc]
+13.9 +7.4 65 +13 +15 1010.0 986.7
00 17.07 ЮЗ 3 10 км дым 10/0
[Ac As Ci sp]
+19.5 +6.3 42 +20 +25 1009.8 987.0 +12.7
03 17.07 СЗ 2 10 км дым 10/0
[Ac As Ci fib]
+23.5 +6.7 34 +24 +32 комфорт 1008.6 986.1
06 17.07 СЗ 3 10 км дым 10/0
[Ci sp]
+25.5 +5.7 28 +25 +32 комфорт 1006.8 984.4
09 17.07 СВ 1 10 км дым 10/0
[Ac As Ci sp]
+25.8 +6.5 29 +25 +27 комфорт 1005.0 982.6
12 17.07 Ю 2 4000 м мгла 10/0
[Ci sp]
+21.0 +12.8 59 +24 +24 комфорт 1005.7 983.0 +26.3
15 17.07 Ю 1 4000 м мгла 6/0
[Ci sp]
+15.9 +12.1 78 +17 +17 1005.2 982.2
18 17.07 Ю 3 4000 м мгла 6/3 1000 м
[Sc Ci fib]
+13.7 +10.7 82 +13 +13 1004.6 981.4
21 17.07 Ю 2 50 км мгла 4/0
[Ci fib]
+13.3 +9.6 78 +13 +14 1003.9 980.7
00 18.07 Ю 3 20 км 5/1 1000 м
[Cu hum Cc]
+21.7 +9.7 46 +23 +29 комфорт 1001.4 978.8 +12.3
03 18.07 ЮЗ 3 20 км 5/0
[Ac trans Cc]
+27.7 +6.9 27 +27 +37 жарко 999.4 977.4
06 18.07 З 5 20 км пыльный позёмок 8/3 1000 м
[Cu med, cong Ac cast Cc]
+29.9 +4.7 20 +28 +30 жарко 998.3 976.5
09 18.07 С 3
{13}
20 км 9/3 1000 м
[Cu med, cong Ac lent Ci fib]
+20.7 +10.4 52 +23 +24 комфорт 1002.8 980.2
12 18.07 С 3 10 км слаб. ливневой дождь 10/8 1000 м
[Cb cap Ac As]
+15.4 +12.3 82 +15 +15 1006.2 983.2 +30.3 0.3
15 18.07 ЮЗ 1 20 км {ливн. осадки} 10/6 1000 м
[Sc Ac As Ci sp]
+14.0 +12.5 91 +14 +14 1006.2 983.0
18 18.07 штиль 0 20 км {ливн. осадки} 10/5 1000 м
[Sc Ac As Ci sp]
+12.6 +11.9 95 +12 +12 1006.6 983.2
21 18.07 З 1 20 км 10/5 1000 м
[Sc Ac As Ci sp]
+12.4 +11.5 94 +12 +13 1007.4 984.0
00 19.07 С 1 20 км 10/5 1000 м
[Cu Sc Ac As Ci sp]
+15.3 +10.4 73 +16 +18 1008.3 985.2 +11.6 0.6
03 19.07 ЮЗ 1 20 км 9/5 1000 м
[Cb cap Ac As Ci sp]
+17.4 +9.2 59 +18 +23 1008.2 985.2
06 19.07 В 1 50 км 9/6 1000 м
[Cb cap Ac As Ci sp]
+19.6 +8.5 49 +22 +25 комфорт 1008.5 985.7
09 19.07 С 3
{11}
50 км 8/4 1000 м
[Cu Sc Ac trans Ci sp]
+19.2 +6.7 44 +20 +21 1010.6 987.6
12 19.07 СВ 1 50 км 10/6 1000 м
[Cb cap Ac As Ci sp]
+14.8 +4.5 50 +15 +15 1013.4 990.1 +20.9
15 19.07 СЗ 1 20 км 10/6 1000 м
[Cb cap Ac As Ci sp]
+13.0 +7.9 71 +13 +13 1014.6 991.1
18 19.07 СВ 1 20 км 10/5 1000 м
[Cb cap Ac As Ci sp]
+10.2 +5.1 71 +10 +10 1015.8 992.0
21 19.07 штиль 0 50 км 8/3 1000 м
[Sc Ac As Ci sp]
+9.2 +6.4 83 +8 +9 1017.2 993.2
00 20.07 штиль 0 50 км 8/3 1000 м
[Sc Ac trans Ci sp]
+14.2 +7.8 65 +14 +19 1017.7 994.2 +7.1
03 20.07 С 3 50 км 10/3 600 м
[Cb cap Ac trans]
+16.8 +5.7 48 +17 +20 1017.2 993.9
06 20.07 СВ 2 50 км 10/8 1000 м
[Cu Sc Ac As]
+17.9 +4.2 40 +18 +19 1017.2 994.0
09 20.07 В 2 10 км дым 8/4 1000 м
[Cu Sc Ac As Ci fib]
+16.8 +4.4 44 +17 +18 1017.2 994.1
12 20.07 В 2 10 км дым 4/0
[Ac As Ci sp]
+14.5 +6.0 57 +14 +14 1018.6 995.1 +18.9
15 20.07 штиль 0 10 км дым 10/0
[Ci sp]
+6.4 +4.8 89 +5 +5 1019.8 995.6
18 20.07 СВ 2 20 км 6/0
[Ci fib]
+5.7 +4.5 92 +3 +3 1020.3 996.1
21 20.07 СВ 3 20 км 3/0
[Ci fib]
+6.2 +4.8 91 +3 +4 1021.0 996.8
00 21.07 СВ 3 50 км 3/0
[Ci fib]
+14.3 +5.4 55 +14 +20 1020.7 997.2 +2.1
03 21.07 СВ 5 50 км 4/0
[Ci sp]
+17.7 +2.0 35 +17 +24 1019.0 995.8
06 21.07 В 4 50 км 4/0
[Ci sp]
+19.9 +3.8 35 +20 +27 1017.0 993.9
09 21.07 В 5 50 км 9/0
[Ci]
+20.9 +5.1 36 +22 +23 комфорт 1015.6 992.6
12 21.07 СВ 1 50 км 6/3 1000 м
[Sc Ci sp]
+16.8 +9.1 60 +18 +18 1016.5 993.2 +22.0
15 21.07 СВ 1 20 км 5/5 1000 м
[Sc]
+8.2 +6.2 87 +7 +7 1016.2 992.3
18 21.07 СВ 1 20 км 4/0
[Ci fib]
+5.5 +4.8 95 +4 +4 1015.6 991.4
21 21.07 СВ 2 50 км 10/5 1000 м
[Sc Ac cast Ci sp]
+8.5 +6.6 88 +7 +7 1014.6 990.8
00 22.07 СВ 3 50 км 10/0
[Ci sp]
+15.8 +6.1 52 +15 +21 1012.8 989.5 +4.0
03 22.07 В 3 50 км 10/0
[Cs]
+20.5 +6.5 40 +22 +31 комфорт 1011.1 988.2
06 22.07 В 3 50 км 10/0
[Cs]
+22.0 +3.0 29 +22 +28 комфорт 1009.3 986.6
09 22.07 В 2 50 км 10/0
[Cs]
+22.7 +2.7 27 +22 +24 комфорт 1008.5 985.9
12 22.07 штиль 0 50 км 10/0
[Ac As Cs]
+18.1 +12.8 71 +18 +18 1008.5 985.6 +23.1
15 22.07 штиль 0 20 км 10/0
[Ac As Cs]
+12.9 +11.0 88 +12 +12 1009.1 985.7
18 22.07 штиль 0 20 км 10/0
[Ac As Cs]
+10.1 +9.1 94 +9 +9 1009.5 985.9
21 22.07 Ю 1 20 км 10/0
[Ac As Cs]
+10.1 +8.5 90 +10 +10 1010.2 986.6

 

Местоположение метеостанции Учур (Якутия, Россия): широта 58.73 долгота 130.60 высота над уровнем моря 197 м.

В архиве по умолчанию представлена погода в Учуре за последнюю неделю. Архивные данные за месяц целиком и за предыдущие месяцы, начиная с января 2011 года, Вы можете получить, выбрав интересующий диапазон дат из раскрывающегося списка и нажав кнопку "Ввод!".


*Определитесь, кто Вы:
робот инопланетянин человек

Внимание! Время в таблицах - всемирное. Для получения местного времени необходимо прибавить поправку, которая равна 9 ч.

Смотрите также архив погоды в соседних городах и на ближайших метеорологических станциях:

Погода в Чюльбю (Якутия, Россия) (108 км)
Погода в Угино (Якутия, Россия) (122 км)
Погода в Усть-Миле (Якутия, Россия) (169 км)
Погода в Тегюльте (Якутия, Россия) (196 км)
Погода в Буяге (Якутия, Россия) (230 км)
Погода в Амге (Якутия, Россия) (252 км)
Погода в Томмоте (Якутия, Россия) (255 км)
Погода в Усть-Юдоме (Якутия, Россия) (263 км)
Погода в Токо (Якутия, Россия) (274 км)
Погода в Усть-Мае (Якутия, Россия) (280 км)

Пояснения к столбцам:

Ветер - указаны скорость ветра в м/с - средняя за 10 мин, порывы в срок и между сроками (в фигурных скобках) и направление, откуда дует ветер: С - северный, СВ - северо-восточный, В - восточный, ЮВ - юго-восточный, Ю - южный, ЮЗ - юго-западный, З - западный, СЗ - северо-западный.
Видимость - горизонтальная дальность видимости в метрах или километрах. При видимости от 1 до 10 км при отсутствии осадков обычно наблюдается дымка, при ухудшении видимости до 1 км и менее - туман. В сухую погоду видимость может ухудшаться дымом, пылью или мглою.
Явления - указаны атмосферные явления, наблюдавшиеся в срок или в последний час перед сроком; фигурными скобками обозначены явления, наблюдавшиеся между сроками (за 1-3 часа до срока); квадратными скобками обозначены град или гололедные отложения с указанием их диаметра в мм.
Облачность - указаны через наклонную черту общая и нижняя облачность в баллах и высота нижней границы облаков в метрах; квадратными скобками обозначены формы облаков: Ci - перистые, Cs - перисто-слоистые, Cc - перисто-кучевые, Ac - высококучевые, As - высокослоистые, Sc - слоисто-кучевые, Ns - слоисто-дождевые, Cu - кучевые, Cb - кучево-дождевые. Подробнее классификацию облаков см. в Атласе облаков (PDF).
T - Температура воздуха - температура, измеренная на высоте 2 м над землей.
Td - Температура точки росы - температура, при понижении до которой содержащийся в воздухе водяной пар достигнет насыщения.
f - Относительная влажность воздуха - влажноcть воздуха, измеренная на высоте 2 м над землей.
Te - Эффективная температура - температура, которую ощущает одетый по сезону человек в тени. Характеристика душности погоды. При расчете учитывается влияние влажности воздуха и скорости ветра на теплоощущения человека.
Tes - Эффективная температура на солнце - температура, которую ощущает человек, с поправкой на солнечный нагрев. Характеристика знойности погоды. Зависит от высоты солнца над горизонтом, облачности и скорости ветра. Ночью, в пасмурную погоду, а также при ветре 12 м/с и более поправка равна нулю.
P - Атмосферное давление - приведенное к уровню моря атмосферное давление.
Po - Атмосферное давление - измеренное на уровне метеостанции атмосферное давление.
Tmin - Минимальная температура - минимум температуры воздуха на высоте 2 м над землей.
Tmax - Максимальная температура - максимум температуры воздуха на высоте 2 м над землей.
R - Количество осадков - Количество выпавших осадков за период времени, мм. При наведении курсора мыши на число - период времени, за который выпало указанное количество осадков.
R24 - Количество осадков - Количество выпавших осадков за 24 часа, мм.
S - Снежный покров - Высота снежного покрова, см. При наведении курсора мыши на число - состояние снежного покрова и степень покрытия местности в баллах.